sat.trackr.live / text

‹ back to catalog

QIANFAN-121

NORAD 68648 · 2026-075N

PAYLOAD ACTIVE UNKNOWN

§ Identity

Operator
Country
PRC
Launch date
2026-04-07
Launch site
WSC
Launch vehicle
Mass (kg)
RCS (m²)

External: N2YO · Heavens-Above · Gunter

§ Orbital elements

Epoch: 2026-09-19T22:19:54.118272Z

Period
106.59 min
Inclination
88.9865°
Eccentricity
0.0002226
Mean motion
13.51023811 rev/d
Perigee alt
1,066.8 km
Apogee alt
1,070.2 km
Semi-major
7,446.6 km
B*
3.9846e-5
RAAN
311.3252°
Arg perigee
98.0973°
Mean anomaly
262.0431°
Rev number
2,260

§ Raw data

QIANFAN-1211 68648U 26075N   26262.93048748  .00000038  00000+0  39846-4 0  99972 68648  88.9865 311.3252 0002226  98.0973 262.0431 13.51023811 22606

JSON: /api/v1/satellites/68648 · /tle

For live sub-satellite position, see the globe view (requires WebGL).

§ Visibility from observer

Set your observer location to see the next 7 days of passes ≥ 10°. The values pass through the URL so the page stays shareable.

No JS? Fill the form by hand. The geolocation button needs JavaScript.